Wind_Speed
27 27 28 28 29 29 31 32 33 34 33 32 31 30 28 26 25 24 22 21 20 18 16 15 14 13 13 13 12 12 12 12 12 12 12 12 12 13 13 13 14 14 14 14 14 13 13 13 13 13 13 13 13 13 14 14 14 14 14 14 14 14 14 14 14 14 14 14 14 14 14 14 14 15 15 15 15 15 14 14 14 14 14 14 14 13
28 28 29 30 30 31 31 32 33 33 32 31 30 28 27 25 24 22 21 20 18 17 15 14 14 13 13 12 12 12 12 12 12 12 12 12 13 13 14 14 14 14 14 14 14 14 13 13 13 13 13 13 13 14 14 14 14 14 14 14 14 14 14 14 14 14 14 14 14 14 14 14 15 15 16 16 16 15 15 15 15 14 14 14 15 15
29 30 31 32 32 31 31 32 32 31 31 30 28 27 26 24 23 21 20 18 17 16 15 14 13 13 12 12 12 12 12 12 12 12 12 13 13 14 14 15 15 15 15 15 14 14 14 13 13 13 13 13 13 14 14 14 14 14 14 14 14 14 14 14 14 15 15 15 15 15 15 15 15 15 16 16 16 16 16 15 15 15 15 15 15 15
32 33 33 33 32 31 31 31 30 30 29 28 27 25 24 23 21 20 18 17 16 15 14 14 13 13 12 12 12 12 12 12 12 13 13 13 14 14 14 15 15 15 15 15 14 14 14 14 13 13 13 13 13 14 14 14 14 14 14 14 14 14 14 14 15 15 15 16 16 16 16 16 16 16 16 17 17 17 17 16 16 16 15 15 15 15
34 34 34 33 32 31 30 30 29 28 27 26 25 24 22 21 20 18 17 16 15 15 14 13 13 13 13 12 12 12 12 12 13 13 13 14 14 14 15 15 15 15 15 15 15 14 14 14 13 13 13 13 13 14 14 14 14 14 15 15 15 15 15 15 15 15 16 16 16 16 16 16 16 16 16 17 17 17 17 17 17 16 16 15 15 15
36 35 34 33 32 31 30 29 28 27 26 24 23 22 21 19 18 17 16 16 15 14 14 13 13 13 13 13 13 13 13 13 13 14 14 14 14 15 15 15 15 15 15 15 15 14 14 14 13 13 13 13 14 14 14 14 15 15 15 15 15 15 15 15 15 16 16 16 17 17 17 17 16 16 16 17 17 17 17 17 17 17 17 16 16 15
37 35 34 32 31 30 29 28 26 25 24 23 21 20 19 18 17 17 16 15 14 14 13 13 13 13 13 13 13 13 13 14 14 14 14 14 15 15 15 15 15 15 15 15 15 14 14 14 13 13 13 13 14 14 14 14 15 15 15 15 15 15 15 16 16 16 16 17 17 17 17 17 17 17 17 17 17 17 17 17 17 17 17 17 16 16
36 34 32 31 29 28 27 26 25 23 22 21 20 19 18 18 17 16 15 14 14 13 13 13 13 13 13 13 13 13 14 14 14 15 15 15 15 15 15 15 15 15 15 15 15 14 14 14 14 14 14 14 14 14 14 15 15 15 16 16 16 16 16 16 16 17 17 17 17 17 17 17 17 17 17 17 17 17 17 17 17 17 17 17 16 16
34 32 30 29 28 27 26 24 23 22 21 20 19 18 18 17 16 16 15 14 13 13 13 13 13 14 14 14 14 14 14 14 15 15 15 15 15 15 16 16 15 15 15 15 15 14 14 14 14 14 14 14 14 15 15 15 15 16 16 16 16 16 17 17 17 17 17 17 17 17 17 17 17 17 17 17 17 17 17 17 17 17 17 17 16 16
32 30 29 27 26 25 24 22 21 20 19 18 18 17 17 17 16 15 14 13 13 13 13 13 14 14 14 14 14 14 14 15 15 15 16 16 16 16 16 16 15 15 15 15 15 14 14 14 14 14 14 14 15 15 15 16 16 16 16 17 17 17 17 17 17 17 17 18 18 18 18 18 18 17 17 17 17 17 17 17 17 16 16 16 16 16
29 28 27 26 24 23 22 20 19 19 18 17 17 17 16 16 15 14 14 13 13 13 14 14 14 14 14 15 15 15 15 15 16 16 16 16 16 16 16 16 15 15 15 15 15 15 15 14 14 15 15 15 15 15 16 16 16 16 17 17 17 17 18 18 18 18 18 18 18 18 18 18 18 18 17 17 17 17 17 17 16 16 16 16 16 16
27 26 25 24 22 21 20 19 18 18 17 17 17 16 16 15 14 14 13 13 13 14 14 14 14 15 15 15 16 16 16 16 16 16 16 16 16 16 16 16 16 15 15 15 15 15 15 15 15 15 15 15 15 16 16 16 17 17 17 17 18 18 18 18 18 18 18 18 18 18 18 18 18 18 18 17 17 17 17 17 17 16 16 16 16 16
24 24 23 21 20 19 18 17 17 17 17 16 16 16 15 14 13 13 13 13 14 14 14 15 15 16 16 16 16 16 16 17 17 17 16 16 16 16 16 16 16 16 15 15 15 15 15 15 15 15 16 16 16 16 16 17 17 17 18 18 18 18 18 18 19 19 18 18 18 18 18 18 18 18 18 17 17 17 17 17 17 17 16 16 16 16
22 21 20 19 18 17 17 16 16 16 16 16 15 15 14 13 13 13 13 14 14 15 15 15 16 16 16 17 17 17 17 17 17 17 17 16 16 16 16 16 16 16 16 15 16 16 16 16 16 16 16 16 16 17 17 17 17 18 18 18 18 19 19 19 19 19 19 19 19 18 18 18 18 18 18 17 17 17 17 17 17 17 17 17 17 17
20 19 18 17 17 16 16 16 16 16 16 15 15 14 13 13 13 13 13 14 15 16 16 16 16 16 17 17 17 17 17 17 17 17 17 16 17 16 16 16 16 16 16 16 16 16 16 16 16 17 17 17 17 17 17 18 18 18 18 19 19 19 19 19 19 19 19 19 19 19 18 18 18 18 18 17 17 17 17 17 17 17 17 17 17 17
18 17 16 16 16 16 16 15 15 15 15 14 14 13 13 13 13 13 14 15 15 16 16 16 17 17 17 18 18 18 18 17 17 17 16 16 17 17 17 16 16 16 16 16 16 17 17 17 17 17 17 18 18 18 18 18 18 19 19 19 19 19 19 19 19 19 19 19 19 19 19 19 18 18 18 18 18 17 17 17 17 17 18 18 18 18
16 15 15 15 15 15 15 15 15 14 14 14 14 13 13 13 14 14 15 15 16 16 17 17 17 17 17 18 18 18 18 18 17 17 17 16 16 17 17 17 17 17 17 17 17 17 18 18 18 18 18 18 18 18 19 19 19 19 19 19 20 20 20 20 20 20 20 19 19 19 19 19 19 18 18 18 18 18 18 18 18 18 18 18 18 18
14 14 14 14 14 15 15 14 14 14 14 14 14 14 14 14 15 15 15 16 16 16 16 17 17 17 17 18 19 19 18 18 17 17 17 16 16 17 17 17 17 17 17 18 18 18 19 19 19 19 19 19 19 19 19 19 20 20 20 20 20 20 20 20 20 20 20 20 20 20 19 19 19 19 19 19 19 19 18 18 18 19 19 19 19 19
14 14 14 14 14 14 14 14 14 14 14 14 14 14 15 15 15 15 15 16 16 16 16 17 17 18 18 18 19 19 19 18 18 17 17 17 17 17 18 18 18 18 18 18 19 19 19 19 20 20 20 20 20 20 20 20 20 20 21 21 21 21 21 21 21 21 20 20 20 20 20 20 20 20 20 19 19 19 19 19 19 19 20 20 20 20
13 13 13 14 14 14 14 14 14 14 14 14 15 15 15 15 15 16 16 16 16 16 17 17 18 18 18 18 18 19 19 18 18 18 17 17 17 18 18 18 18 19 19 19 20 20 20 20 20 20 20 20 20 20 21 21 21 21 21 21 21 21 21 21 21 21 21 21 21 21 21 21 21 21 21 21 21 21 21 21 21 21 21 21 21 21
13 13 13 14 14 14 14 15 15 15 15 15 15 15 15 15 15 16 16 16 16 17 17 18 18 18 18 18 18 18 19 18 18 18 18 18 18 18 19 19 19 19 19 20 20 20 20 20 21 21 21 21 21 21 21 22 22 22 22 22 22 22 22 22 22 21 21 21 21 22 22 22 22 22 22 22 22 22 22 22 22 22 22 22 22 22
13 13 14 14 14 14 15 15 15 15 14 14 14 14 15 15 15 15 16 16 16 17 17 18 18 18 18 17 18 18 19 19 18 19 19 19 19 19 20 19 19 20 20 20 20 21 21 21 21 21 22 22 22 22 22 22 22 22 22 22 22 22 22 22 22 22 22 22 22 22 22 22 23 23 23 23 23 23 23 23 23 23 23 23 22 22
13 14 14 14 14 14 15 15 14 14 14 14 14 14 15 15 15 15 16 16 16 17 17 18 18 18 18 18 18 18 19 19 19 19 19 19 19 20 20 20 20 20 20 21 21 21 21 22 22 22 22 22 22 23 23 23 23 23 23 23 23 23 22 22 22 22 22 23 23 23 23 23 23 24 24 24 24 24 24 24 23 23 23 23 23 23
14 14 14 14 14 14 14 14 14 14 14 14 14 14 14 14 15 15 15 16 16 17 17 17 18 18 18 17 17 18 18 19 19 19 19 19 19 20 20 20 20 20 21 21 21 21 22 22 23 23 23 23 23 23 23 23 23 23 23 23 23 23 23 23 23 23 23 23 23 23 23 24 24 24 24 24 25 25 24 24 24 24 24 24 23 23
14 14 14 14 14 14 13 13 13 13 13 13 13 13 14 14 14 14 15 16 16 16 17 17 17 17 17 17 17 17 18 18 18 18 18 19 19 20 20 20 20 21 21 22 22 22 22 22 23 23 23 23 23 23 24 24 24 24 24 24 24 24 24 24 24 23 23 23 23 24 24 24 24 24 25 25 25 25 25 25 25 24 24 24 24 24
14 14 14 13 13 13 13 13 13 13 13 13 13 13 13 14 14 14 15 15 16 16 16 17 17 17 18 18 17 17 18 18 18 18 18 19 19 20 21 21 21 21 21 22 22 22 22 22 23 23 24 24 24 24 24 24 24 24 24 24 24 24 24 24 24 24 24 24 24 24 24 24 24 24 25 25 25 25 25 25 25 25 24 24 24 24
14 13 13 13 13 13 12 12 12 12 13 13 13 13 14 14 14 14 15 15 16 16 16 16 17 17 18 18 18 18 18 18 18 18 19 19 19 20 20 21 21 21 21 22 22 22 22 22 23 24 24 24 24 24 24 24 24 24 25 25 25 24 24 24 24 24 24 24 24 25 25 25 25 25 25 25 25 25 25 25 25 25 25 24 24 24
13 13 13 13 12 12 13 12 13 13 13 13 13 14 14 14 14 14 15 16 16 16 16 16 17 17 18 18 18 18 17 17 17 18 18 18 18 19 20 21 21 21 22 22 22 22 22 23 23 24 24 24 24 24 25 25 25 25 25 25 25 25 25 25 25 25 25 25 25 25 25 25 25 25 25 25 25 25 25 25 25 25 25 25 24 24
13 13 13 13 13 13 13 13 13 13 13 14 14 14 15 15 14 15 15 16 16 16 16 17 17 17 17 18 18 18 17 17 17 18 18 18 18 19 20 21 21 22 22 22 22 23 23 23 24 24 24 25 25 25 25 25 25 25 25 25 25 25 25 25 25 25 25 25 25 25 25 25 25 25 25 25 25 25 25 25 25 25 25 24 24 24
13 13 13 13 13 13 13 13 13 14 14 14 15 15 15 15 15 15 16 16 16 16 17 17 17 18 18 18 18 18 18 18 18 18 18 18 18 19 21 21 22 22 23 23 23 23 24 24 25 25 25 25 25 25 25 25 25 25 26 25 25 25 25 25 25 25 25 25 25 25 25 25 25 25 25 25 25 25 25 25 24 24 24 24 24 24
13 13 13 13 14 14 14 14 14 14 15 15 15 16 16 16 16 16 17 17 17 17 17 18 18 18 19 19 19 19 19 19 19 19 19 19 19 20 21 22 23 23 24 24 24 24 24 25 26 26 26 26 26 26 26 26 26 26 26 26 26 26 25 25 25 25 25 25 25 25 25 25 25 26 26 26 25 25 25 24 24 24 23 23 23 23
13 14 14 14 14 15 15 15 15 15 16 16 16 17 17 17 18 18 18 18 18 18 18 19 19 19 20 20 20 20 20 20 20 20 20 20 21 21 22 23 23 24 25 25 24 24 25 26 27 27 27 27 27 27 27 27 27 27 27 26 26 26 26 26 25 25 25 25 25 25 25 25 25 26 26 25 25 25 25 24 24 23 23 23 23 23
14 14 15 15 15 16 16 16 16 16 17 17 17 18 18 19 19 19 19 19 20 20 20 20 20 20 21 21 21 21 21 21 21 21 22 21 22 23 23 24 24 25 25 26 26 25 25 26 27 28 28 28 28 28 28 28 27 27 27 27 27 26 26 26 26 26 26 26 26 26 25 25 25 25 25 25 25 25 24 24 23 23 22 22 22 22
15 15 16 16 16 17 17 17 17 18 18 18 19 19 19 20 20 20 21 21 21 21 21 21 21 21 21 22 22 22 23 22 22 22 23 23 23 24 25 25 26 26 26 26 26 26 26 26 27 27 28 29 29 29 29 28 28 28 28 27 27 27 27 26 26 26 26 26 26 26 26 26 25 25 25 25 25 24 24 24 23 23 22 22 21 22
16 16 17 17 17 18 18 18 19 19 19 20 20 20 21 21 21 21 22 22 22 22 22 22 22 22 22 22 23 23 24 23 23 24 24 24 25 25 26 26 27 27 27 27 27 27 27 27 27 27 27 28 29 29 29 29 28 28 28 28 27 27 27 27 26 26 26 26 26 26 26 26 25 25 25 24 24 24 23 23 23 22 22 22 21 21
17 17 17 18 18 19 19 20 20 20 21 21 21 22 22 22 22 23 23 23 23 23 23 24 24 24 24 24 24 24 25 25 25 25 25 26 26 26 27 27 27 28 27 27 27 27 27 27 27 27 27 28 29 29 30 29 29 28 28 28 28 27 27 27 26 26 26 26 26 26 26 26 25 25 24 24 24 23 23 23 22 22 22 22 22 22
17 18 18 18 19 19 20 20 21 21 21 22 22 23 23 23 23 23 24 24 24 24 24 24 25 25 25 25 25 25 26 26 26 26 27 27 27 27 27 27 28 28 28 28 28 28 27 27 27 27 27 27 28 29 29 30 29 29 29 29 28 28 27 27 26 26 26 26 26 26 26 25 25 25 24 24 23 23 23 23 22 22 22 22 22 22
17 18 18 19 19 20 20 21 21 21 22 22 23 23 23 23 24 24 24 24 24 25 25 25 25 26 26 26 26 27 27 27 27 27 27 28 28 28 28 28 28 28 28 28 28 28 27 27 27 27 27 27 28 28 29 29 29 29 29 29 29 28 27 27 26 26 26 26 26 26 26 25 25 24 24 24 23 23 23 23 23 23 23 23 23 23
18 18 19 19 20 20 21 21 21 22 22 22 23 23 23 24 24 24 24 25 25 25 25 25 25 26 26 26 27 27 28 28 28 28 28 28 28 28 28 28 28 28 29 29 28 28 28 27 27 27 27 27 28 28 28 28 29 29 30 30 30 29 28 27 26 25 25 25 25 25 25 25 24 24 24 24 23 23 23 23 23 23 23 23 23 23
19 19 20 20 21 21 21 22 22 22 23 23 23 23 23 24 24 25 25 25 25 25 25 25 25 26 26 27 27 28 28 28 29 29 29 29 29 29 29 29 29 29 29 29 29 28 28 27 27 27 27 27 27 27 28 28 29 29 30 30 30 30 29 28 26 26 25 25 25 25 25 25 24 24 24 24 23 23 23 23 23 23 23 23 24 24
20 20 20 21 21 22 22 23 23 23 23 23 24 24 24 24 24 25 25 25 25 25 25 25 26 26 27 27 28 28 29 29 29 29 29 29 30 30 30 29 29 29 29 29 29 28 28 28 27 27 27 27 27 27 27 28 28 29 30 30 30 30 30 28 27 26 26 25 25 25 25 24 24 24 24 24 24 24 23 23 23 24 24 24 24 24
21 21 22 22 23 23 23 23 24 24 24 24 24 24 25 25 25 25 25 25 26 26 26 26 26 27 28 28 29 29 30 30 30 30 30 30 30 30 30 30 30 29 29 28 28 28 28 28 28 28 28 27 27 27 27 27 28 29 30 30 30 30 30 29 28 27 26 25 25 25 24 24 24 24 24 24 24 24 24 24 24 24 24 24 24 25
22 22 23 23 23 23 24 24 24 24 25 25 25 25 25 25 25 26 26 26 27 27 27 27 27 28 28 29 30 30 31 31 31 31 31 31 31 31 31 30 30 30 29 28 28 28 28 28 28 28 28 28 27 26 26 27 28 29 30 30 30 29 29 29 28 27 26 26 25 25 25 24 24 24 24 24 24 24 24 24 24 24 24 24 25 25
22 23 23 23 23 23 24 24 24 25 25 26 26 26 26 26 26 26 27 27 28 28 28 28 28 29 29 30 31 31 32 32 32 32 32 32 32 31 31 31 30 30 29 29 28 28 28 28 28 28 28 28 27 27 27 27 28 29 30 30 30 29 28 28 28 27 26 26 25 25 25 25 25 25 25 25 25 24 24 24 24 24 24 25 25 25
22 23 23 23 23 23 23 24 24 24 25 26 26 26 26 26 27 27 27 28 28 29 29 29 29 30 30 31 32 32 32 33 33 33 33 33 32 32 32 31 31 30 29 29 28 28 28 27 28 28 28 28 27 27 27 27 28 29 30 30 29 29 28 28 28 27 27 26 26 25 25 25 25 25 25 25 25 25 25 24 24 24 25 25 25 25
22 22 22 22 22 22 23 23 23 24 24 25 25 25 25 26 26 26 27 28 28 29 29 29 29 30 30 31 32 32 33 33 34 34 34 34 33 33 33 32 31 31 30 29 29 28 28 27 27 28 28 28 27 27 27 28 28 28 29 29 29 28 28 28 28 27 27 26 26 26 25 25 25 25 25 25 25 25 25 25 25 25 25 25 25 25
22 21 21 21 21 21 22 22 22 23 23 24 24 25 25 25 26 26 27 27 28 28 29 29 29 29 30 30 31 32 33 33 34 35 35 35 34 34 33 33 32 32 31 30 30 29 28 28 28 27 27 27 27 27 27 28 28 28 28 28 28 27 27 28 27 27 26 26 26 26 26 25 25 25 25 25 25 25 25 25 25 25 26 26 26 26
20 20 20 20 21 21 22 23 23 24 24 25 25 26 26 26 26 27 27 28 28 28 29 29 29 29 30 30 31 32 32 33 34 35 35 36 35 35 35 34 34 33 32 31 31 30 29 28 28 27 27 26 26 27 27 28 28 27 27 27 27 27 27 27 27 27 27 26 26 26 26 26 26 26 26 26 25 25 26 26 26 26 26 26 26 26
19 19 20 20 21 22 23 24 25 25 25 26 27 27 27 28 28 28 28 29 29 29 29 29 30 30 30 31 32 32 33 34 34 35 36 36 36 36 36 35 34 34 33 32 31 30 29 28 28 27 27 26 26 26 27 27 27 26 26 26 26 26 27 27 27 27 27 26 26 26 26 26 26 26 26 26 25 25 25 26 26 27 27 27 27 27
20 20 21 22 23 23 24 25 25 26 26 27 27 28 28 29 29 29 30 30 30 30 30 30 31 31 31 32 33 33 34 34 35 36 36 37 37 37 36 35 35 34 33 33 32 31 29 28 27 27 27 26 26 26 26 25 25 25 25 25 26 26 27 27 27 27 27 26 26 26 26 26 27 27 27 26 25 25 25 25 26 27 28 28 28 28
21 22 22 23 24 24 25 25 26 26 27 27 28 29 29 30 30 30 31 31 31 31 32 32 32 33 33 33 34 34 35 35 36 36 37 37 37 37 36 36 35 34 33 33 32 31 29 28 27 26 26 26 26 25 25 24 24 24 24 25 26 26 26 27 27 27 27 27 26 26 27 27 27 27 27 26 26 25 24 24 25 26 27 28 28 28
Wind_Direction
282 286 287 287 284 281 279 280 281 284 286 289 291 292 292 292 290 288 286 283 280 277 272 269 266 264 263 263 264 264 265 266 267 269 271 272 274 275 276 277 277 278 278 278 279 279 280 281 281 282 283 284 285 285 286 286 287 287 288 289 289 290 291 291 292 292 293 293 293 294 294 295 296 297 298 299 299 299 299 298 297 295 294 291 289 287
283 286 288 288 285 282 280 279 280 282 285 288 289 290 289 288 286 284 281 279 276 272 269 266 263 263 262 262 263 263 264 266 268 270 272 274 275 277 278 279 280 280 280 280 279 280 280 281 281 282 283 284 284 285 286 286 287 288 288 289 290 290 291 292 292 293 293 293 293 293 293 294 294 295 296 297 297 298 297 296 295 294 293 291 289 287
284 287 288 288 286 283 280 280 280 282 284 286 287 287 286 285 282 280 277 274 271 268 266 264 263 262 261 261 262 263 265 267 269 271 273 275 276 278 279 280 280 281 281 281 281 281 281 282 282 283 284 284 285 286 286 287 288 289 289 290 291 291 292 292 293 293 293 293 293 293 294 293 293 294 294 295 295 296 296 296 295 293 292 290 289 288
285 288 289 288 285 282 280 279 280 282 283 285 285 284 283 281 278 275 271 269 267 265 264 263 262 261 261 261 262 263 266 268 270 272 273 275 276 278 279 280 280 281 281 281 281 282 282 283 283 284 285 285 286 287 288 288 289 290 291 292 292 293 293 293 293 293 293 293 293 293 293 293 293 293 293 293 294 294 295 294 294 293 292 290 289 288
285 287 287 286 283 280 279 279 280 281 282 283 282 281 279 276 273 269 266 265 264 263 263 263 263 262 262 262 263 264 267 268 270 272 273 275 276 277 278 279 279 280 280 281 281 282 282 283 283 284 285 286 287 287 288 289 290 291 292 293 293 294 293 293 293 292 292 292 292 293 293 293 293 293 292 292 293 293 294 294 293 293 292 290 288 287
283 284 284 282 280 278 277 278 280 281 281 281 279 277 274 271 268 265 263 262 262 263 263 263 263 263 264 264 265 267 268 270 271 272 273 274 275 276 277 278 278 278 279 279 280 281 281 282 283 284 284 285 286 287 288 289 290 291 292 293 294 294 293 292 292 292 291 291 292 292 292 292 292 292 292 292 292 293 293 293 293 292 292 290 289 287
280 280 280 278 277 276 276 278 279 280 280 278 276 273 270 266 263 262 261 260 261 261 262 263 264 264 265 266 268 269 270 271 272 273 274 275 275 276 277 277 277 278 278 278 279 280 280 281 282 283 283 284 286 287 288 289 290 291 292 292 293 292 292 291 291 290 290 291 291 291 292 292 292 292 292 292 291 292 292 292 292 292 292 291 289 287
277 277 276 275 274 274 276 277 278 277 276 274 272 269 266 263 261 260 259 259 260 260 262 263 264 265 267 268 269 270 272 272 273 274 275 275 276 276 276 277 277 277 277 278 278 278 279 280 280 281 282 284 285 286 287 288 289 290 291 291 292 291 291 290 290 290 290 290 290 290 291 291 291 291 291 290 290 290 290 290 290 290 290 290 289 287
274 274 272 272 273 274 275 276 275 274 273 270 268 265 263 261 260 259 259 259 259 260 261 263 265 266 268 269 270 271 272 273 274 274 275 276 276 276 276 276 276 276 276 277 277 278 278 279 279 280 282 283 284 285 287 288 289 289 290 290 290 290 290 290 289 289 289 289 289 289 289 289 290 290 290 289 289 289 289 289 289 289 289 288 288 287
271 271 271 271 272 273 274 274 272 270 269 266 264 262 260 260 259 259 259 260 260 261 262 263 265 267 269 271 272 272 273 274 274 275 275 276 276 275 275 275 275 275 276 276 276 277 277 278 279 280 281 282 284 285 286 287 288 289 289 290 290 289 289 289 289 288 288 288 288 288 288 288 289 289 288 288 288 288 288 288 288 288 288 287 287 286
269 269 269 270 271 271 271 270 269 267 265 263 261 259 258 258 259 259 260 261 262 263 265 266 267 269 270 272 273 274 274 275 275 276 276 276 275 275 275 275 275 275 275 275 276 276 277 278 279 280 281 282 284 285 286 287 288 288 289 289 289 288 288 288 288 287 287 287 287 287 287 288 288 288 288 288 288 288 288 287 287 287 287 286 286 285
268 268 269 269 269 269 268 266 264 263 262 260 259 258 257 258 258 260 261 262 264 266 267 269 270 271 272 273 275 276 276 276 276 276 276 276 276 276 275 275 275 275 275 275 276 276 277 278 279 280 281 283 284 285 286 287 287 288 288 287 288 287 287 287 287 287 287 287 287 287 287 287 287 287 287 287 287 288 288 288 287 287 287 286 286 285
266 267 267 267 266 265 264 262 261 260 259 258 258 257 257 258 259 261 263 265 267 268 269 271 272 274 275 276 276 277 277 277 277 277 277 277 276 276 276 276 276 276 276 276 276 277 278 278 279 280 282 283 284 285 286 286 287 287 287 287 287 286 286 286 286 286 286 286 286 286 286 287 287 287 287 287 287 287 288 288 288 288 288 288 287 286
264 264 263 263 262 261 260 259 258 257 256 255 255 256 257 259 262 264 267 268 269 270 272 273 274 275 276 277 277 278 278 277 277 277 277 277 277 277 277 277 277 277 277 277 278 278 279 280 280 281 282 283 284 285 285 286 286 286 286 286 286 286 286 286 286 286 286 286 286 286 286 286 286 286 286 286 287 287 287 287 288 288 288 288 288 288
259 259 258 257 257 256 255 254 254 253 253 254 255 257 259 262 264 267 269 270 271 272 273 274 275 276 277 277 277 277 277 277 276 276 276 277 277 277 277 277 277 278 278 278 279 279 280 280 281 282 282 283 284 284 285 285 285 285 285 285 285 285 285 285 285 285 286 286 286 286 286 286 286 285 285 286 286 286 286 287 287 287 288 288 289 289
254 254 253 253 253 252 252 251 250 251 252 254 256 259 262 264 266 268 269 270 271 273 274 275 276 277 277 277 277 276 276 276 275 275 276 276 277 277 277 277 277 278 278 279 279 279 280 281 281 282 283 283 284 284 284 284 285 285 285 285 285 285 285 285 285 285 285 285 285 285 285 285 285 285 285 285 285 285 286 286 286 287 287 288 288 288
249 249 249 249 249 249 249 249 249 250 253 256 259 262 264 265 266 267 268 269 271 273 275 276 277 277 277 277 277 276 275 275 275 275 275 276 276 277 277 277 277 278 279 279 279 280 281 281 282 283 283 284 284 284 284 284 284 284 285 284 284 284 284 284 285 285 285 285 285 284 284 284 284 284 284 284 285 285 285 285 285 286 286 286 286 287
245 244 245 245 246 247 248 249 251 254 257 260 262 264 266 266 267 268 268 269 271 273 275 276 276 276 276 276 276 276 276 276 275 275 275 275 276 276 277 277 278 278 279 280 281 281 282 282 283 283 284 284 284 285 285 285 285 285 285 285 285 284 284 284 285 284 284 284 284 284 284 284 284 284 284 284 284 284 284 284 285 285 285 285 285 285
240 240 241 242 244 246 249 252 255 258 261 263 265 266 267 268 269 269 270 271 272 273 274 274 274 273 273 274 275 276 276 276 276 276 276 276 276 277 277 278 279 280 280 281 282 282 283 283 284 284 284 285 285 285 285 285 285 285 285 284 284 284 284 284 284 284 284 284 284 284 284 284 284 283 283 283 283 283 284 284 284 284 284 284 283 283
236 238 240 242 245 248 252 255 258 261 263 265 267 268 269 269 270 271 272 272 272 272 272 272 272 271 272 272 274 275 276 277 277 277 277 278 278 278 278 279 280 281 281 281 282 283 283 284 284 284 285 285 285 285 285 284 284 284 284 284 284 284 284 284 284 284 284 284 284 284 284 283 283 283 283 283 283 283 283 283 283 283 283 282 282 282
236 239 242 245 249 252 255 258 261 263 265 267 268 269 270 271 272 272 273 273 273 272 272 271 271 271 272 272 274 276 277 278 279 279 279 279 279 279 279 280 281 281 281 282 282 283 283 284 284 284 284 284 284 284 284 284 284 284 284 284 284 284 284 284 284 284 284 284 284 284 284 284 283 283 283 283 283 283 283 283 282 282 282 282 281 281
239 242 246 250 253 255 258 260 262 264 266 267 268 269 270 271 272 273 273 273 273 272 272 272 271 272 273 274 274 276 277 278 279 280 280 280 280 280 280 281 281 282 282 282 282 283 283 283 283 283 284 284 284 284 284 283 283 283 283 283 283 283 283 283 283 284 284 284 284 284 284 284 283 283 283 283 283 283 283 282 282 282 282 281 281 280
244 247 250 253 255 257 259 261 263 264 266 267 268 269 270 271 272 273 273 273 272 272 272 272 273 274 274 275 275 276 277 278 279 279 280 281 281 281 281 282 282 282 282 282 282 283 283 283 283 283 283 283 283 283 283 283 283 283 283 283 283 282 283 283 283 283 283 283 283 283 283 284 284 284 283 283 283 283 283 283 282 282 282 281 281 280
248 250 252 254 255 257 259 260 262 263 265 266 267 269 270 271 272 272 273 273 273 273 274 274 275 275 276 276 275 276 276 277 278 279 280 281 281 281 281 282 283 283 283 283 283 283 283 283 283 283 283 283 283 283 283 283 283 283 283 283 282 282 282 282 282 282 282 282 282 283 283 283 283 284 284 284 284 283 283 283 282 282 282 281 280 280
249 251 252 254 255 256 258 259 261 262 263 265 266 267 268 269 271 272 273 273 274 275 275 276 277 277 277 276 276 276 277 278 278 280 281 281 281 281 282 282 283 283 283 283 283 283 283 283 283 283 283 283 283 283 283 283 283 283 283 283 282 282 282 282 282 282 282 282 282 282 282 282 283 283 284 284 284 284 283 283 283 282 281 281 280 279
250 251 251 252 254 255 256 258 259 260 261 262 264 265 267 269 270 272 273 274 275 275 276 278 278 278 278 278 277 277 278 279 280 281 281 281 282 282 283 283 283 283 282 283 283 283 283 282 282 282 282 282 283 283 282 282 282 282 282 282 282 282 282 282 282 282 282 282 281 282 282 282 282 283 283 283 283 283 283 283 282 282 281 281 280 279
249 249 250 251 252 252 254 254 256 257 259 261 263 265 267 269 272 273 274 274 275 276 278 278 279 279 279 280 279 279 280 281 282 282 282 282 283 283 283 283 283 283 282 282 282 282 282 281 282 282 282 282 282 282 282 282 281 281 281 281 281 281 281 282 282 282 282 282 282 282 282 282 282 282 282 282 282 282 282 282 282 281 281 280 279 279
248 248 249 249 250 250 251 252 254 256 259 261 264 267 269 271 273 274 274 275 277 278 279 280 280 280 281 281 281 281 281 282 282 282 283 283 284 283 284 284 284 283 283 283 283 283 282 282 281 281 281 281 281 281 281 281 280 280 280 280 280 280 280 281 281 282 282 283 283 283 283 283 283 283 282 282 282 281 281 281 281 281 280 280 279 278
248 248 248 248 248 249 251 253 256 259 261 265 267 270 272 274 275 275 276 277 279 281 281 282 282 282 282 282 282 283 283 282 282 282 283 284 285 284 284 285 285 285 285 285 285 284 284 283 282 281 281 281 281 280 280 280 280 279 279 279 279 279 280 280 281 281 282 282 283 283 283 283 283 283 283 282 281 281 280 280 280 279 279 279 278 277
247 247 247 248 249 251 253 256 259 262 266 269 271 274 276 278 278 278 279 280 282 282 283 284 284 284 284 285 285 285 284 284 284 284 285 287 287 286 286 287 287 287 286 286 286 285 285 284 283 282 281 281 280 280 280 279 279 279 279 279 279 279 279 280 280 281 281 282 282 283 283 283 283 283 283 282 281 281 280 279 279 278 278 277 277 276
248 248 249 250 251 254 257 260 263 266 269 272 274 276 278 280 280 281 282 282 283 284 284 285 285 285 286 286 286 286 286 286 287 288 288 289 289 288 288 288 288 288 288 287 287 286 285 285 284 283 282 282 281 280 280 279 279 279 279 279 279 279 280 280 280 280 281 281 282 282 282 283 283 283 282 282 281 280 279 278 278 277 276 276 276 275
251 251 252 254 255 258 261 264 266 269 272 274 276 278 279 280 281 282 282 283 283 284 284 285 285 286 286 286 287 287 287 288 289 290 290 291 290 290 290 290 289 289 288 288 287 286 285 285 284 284 283 282 281 281 280 280 279 279 279 279 279 280 280 280 281 281 281 281 282 282 282 282 282 282 282 281 281 280 279 278 277 276 275 275 274 274
254 255 257 258 260 262 264 267 269 271 272 274 276 277 278 280 280 281 282 282 283 283 284 284 284 285 286 286 286 286 287 288 289 290 290 291 291 291 291 290 290 289 289 288 287 286 285 284 284 284 283 283 282 282 281 280 280 279 279 279 280 280 280 281 281 281 282 282 282 282 282 282 281 281 281 280 280 279 278 277 277 276 275 274 274 273
256 258 259 261 263 264 266 268 269 271 272 273 275 276 277 278 279 280 281 282 282 282 283 283 284 284 285 286 286 286 286 287 288 289 289 290 291 291 291 291 290 289 289 288 287 286 285 284 283 283 282 282 282 282 281 280 280 280 280 280 280 280 281 281 281 282 282 282 282 282 282 282 281 281 280 279 279 278 278 277 277 276 275 274 274 273
259 260 262 263 265 266 268 269 271 272 273 274 275 276 277 278 279 280 281 282 283 283 284 284 285 285 285 285 286 286 286 287 287 288 288 290 290 291 291 291 291 289 288 287 286 285 284 283 283 282 281 282 281 281 281 280 280 279 279 279 279 279 280 280 281 281 282 282 283 283 283 282 282 281 280 279 278 278 277 277 277 276 276 275 275 274
262 264 265 267 269 271 272 273 275 276 277 278 279 279 280 281 282 283 283 284 285 286 287 287 287 287 287 286 286 286 286 286 287 288 289 290 291 292 293 292 291 290 289 287 286 285 284 283 282 281 281 280 280 280 280 280 279 279 279 279 278 279 279 280 281 281 282 283 283 283 283 283 282 281 280 279 278 278 277 277 277 277 277 276 276 275
266 268 269 271 273 274 276 277 279 280 281 282 283 283 284 284 285 286 286 287 288 288 289 289 289 289 289 288 288 287 287 287 287 288 290 291 292 293 294 293 292 291 289 288 286 285 284 283 282 281 280 279 278 279 279 280 280 279 279 278 278 278 279 279 280 281 282 283 283 283 283 283 282 281 281 280 279 278 278 278 278 278 278 278 277 277
269 270 272 273 274 276 277 279 280 281 282 283 284 285 286 286 287 288 288 289 289 289 289 289 289 289 289 289 289 289 289 289 289 290 291 292 293 293 294 293 292 291 290 288 287 285 284 282 281 279 278 278 277 277 278 278 279 279 279 278 278 278 278 279 280 281 282 283 283 283 283 283 282 281 280 280 279 279 279 279 279 279 279 279 279 278
271 272 273 274 276 277 278 279 280 281 282 283 284 285 286 287 288 288 289 289 289 289 289 289 289 289 289 290 290 290 290 290 290 291 291 292 293 293 293 293 292 291 290 288 287 285 284 282 280 278 277 276 276 275 276 276 277 277 278 278 279 279 279 279 280 281 282 282 282 282 282 282 281 281 280 279 279 279 280 280 280 280 280 280 280 280
274 275 276 277 278 279 280 280 281 282 282 283 284 285 286 287 288 289 289 289 288 288 288 289 289 289 290 290 290 290 290 290 290 291 291 292 292 293 293 293 292 291 290 288 287 286 284 282 280 278 276 274 274 274 274 274 275 275 276 277 278 279 279 280 280 281 281 281 282 282 281 281 280 280 279 279 279 279 280 280 281 281 281 281 282 281
277 278 279 280 280 281 281 282 282 283 283 284 285 285 286 287 288 288 289 289 289 289 289 289 289 290 290 290 290 289 289 289 290 290 291 291 292 293 293 293 292 291 290 289 287 286 284 281 279 277 275 274 272 272 272 272 272 273 274 275 276 278 279 280 281 281 281 282 281 281 281 280 280 279 279 279 279 279 280 281 281 282 282 282 282 282
278 279 280 281 281 282 282 283 283 284 284 285 285 285 286 287 287 288 288 288 288 288 288 288 288 288 288 289 289 289 289 289 289 290 291 291 292 293 293 293 293 292 290 289 287 285 283 281 279 277 275 273 272 270 270 270 270 271 272 273 274 276 278 280 281 281 281 281 281 281 280 279 279 278 278 279 279 280 280 281 281 282 282 283 283 283
278 279 280 281 281 282 283 283 283 284 284 284 285 285 286 286 287 287 287 287 287 287 287 287 287 287 287 287 288 289 289 290 290 290 291 292 292 293 293 293 293 292 291 289 288 285 283 281 279 277 275 273 271 270 268 268 268 269 270 271 273 274 277 279 280 280 281 281 280 280 279 279 278 278 278 278 279 280 281 281 282 282 282 283 283 284
279 280 280 281 281 282 282 282 283 283 284 284 284 285 285 285 286 286 286 286 286 286 286 286 286 287 287 288 288 289 290 290 291 291 291 291 292 292 292 292 292 292 291 290 288 285 283 281 279 277 275 273 271 269 267 266 266 267 269 270 272 274 275 277 279 279 280 279 279 279 278 278 278 278 278 279 279 280 281 281 282 282 283 283 283 284
278 278 279 280 280 281 282 283 283 284 285 285 285 285 286 286 286 285 286 286 286 286 286 286 287 287 288 288 289 290 290 290 291 291 291 291 291 291 292 292 292 291 291 290 288 286 283 281 279 277 276 274 271 269 266 265 265 265 267 270 272 274 275 277 278 278 279 279 278 278 278 278 278 278 279 279 280 281 281 282 282 282 283 283 283 284
276 276 278 279 280 281 282 283 285 286 287 287 287 287 287 286 286 285 285 285 285 285 286 286 287 287 288 288 289 290 291 291 291 291 291 291 291 291 291 292 292 291 291 290 288 286 284 281 278 276 274 273 270 268 266 265 264 265 267 269 272 274 275 276 277 278 278 278 278 278 278 278 278 279 279 280 281 281 282 282 283 283 283 283 283 284
274 275 277 279 280 282 283 285 287 288 289 289 289 288 287 286 285 284 284 284 284 285 286 287 288 288 289 289 290 291 291 291 292 292 292 292 292 292 292 292 292 291 291 290 288 287 284 281 278 276 273 271 269 267 266 266 265 266 267 270 272 274 275 276 277 277 278 278 278 278 278 278 278 279 279 280 281 282 283 283 283 283 284 283 284 284
274 276 278 280 282 284 286 288 289 290 291 291 290 289 289 288 287 287 286 286 286 287 288 289 289 290 291 291 292 292 292 292 292 293 293 293 293 293 292 292 292 291 291 290 289 287 284 282 279 276 273 270 268 266 266 266 266 267 269 270 272 274 275 276 277 277 278 278 278 278 278 278 278 278 279 280 281 282 283 284 284 285 285 284 284 284
278 280 282 285 287 289 291 292 292 293 293 293 293 292 291 291 291 291 291 291 290 291 291 292 292 292 292 293 293 294 294 293 293 293 293 293 293 292 292 292 291 291 290 289 288 287 285 282 278 275 272 270 267 266 265 266 267 269 270 271 273 274 275 276 277 277 277 277 277 277 277 278 278 278 278 279 281 282 284 285 286 286 286 286 286 286
284 285 287 290 291 293 293 294 294 295 295 295 295 294 294 293 292 292 293 293 293 293 294 294 293 293 293 293 293 293 293 293 293 293 292 292 291 291 291 291 290 290 290 289 288 286 284 281 277 274 272 269 267 265 265 266 267 269 270 272 273 274 275 276 277 277 277 277 277 277 277 277 278 278 279 279 280 282 283 285 286 286 287 287 287 287
288 289 291 292 293 293 293 294 294 294 294 294 294 293 293 293 292 292 292 292 292 293 293 293 293 292 292 292 292 292 292 292 292 291 291 290 290 290 290 290 290 289 289 288 286 285 282 279 275 273 271 269 267 266 265 266 267 268 269 271 272 274 275 276 276 277 277 277 277 277 277 277 278 278 279 280 280 281 282 283 285 286 287 287 288 288
Height
3088 3089 3089 3089 3089 3088 3088 3087 3086 3086 3085 3085 3085 3085 3084 3084 3084 3083 3083 3082 3082 3082 3082 3082 3082 3082 3082 3082 3082 3082 3081 3081 3081 3081 3081 3081 3081 3081 3081 3081 3081 3081 3081 3081 3081 3080 3080 3080 3079 3079 3079 3079 3079 3079 3079 3079 3079 3079 3078 3078 3078 3077 3077 3076 3076 3075 3075 3075 3074 3074 3074 3073 3072 3072 3071 3071 3070 3070 3070 3069 3069 3069 3068 3068 3068 3067
3086 3086 3086 3086 3086 3086 3085 3085 3085 3084 3084 3083 3083 3083 3082 3082 3082 3081 3081 3081 3081 3081 3080 3080 3080 3080 3080 3080 3080 3080 3080 3080 3080 3080 3080 3080 3080 3080 3080 3080 3080 3080 3080 3080 3079 3079 3079 3079 3078 3078 3078 3078 3078 3077 3077 3077 3077 3077 3077 3077 3076 3076 3075 3075 3075 3074 3074 3073 3073 3073 3072 3072 3071 3071 3070 3070 3069 3069 3069 3068 3068 3068 3067 3067 3067 3066
3084 3084 3084 3084 3084 3084 3083 3083 3082 3082 3082 3081 3081 3081 3080 3080 3080 3080 3080 3080 3079 3079 3079 3079 3079 3079 3079 3079 3079 3079 3079 3079 3079 3079 3079 3079 3079 3079 3079 3078 3078 3078 3078 3078 3078 3078 3077 3077 3077 3076 3076 3076 3076 3076 3076 3076 3076 3076 3075 3075 3075 3075 3074 3074 3073 3073 3072 3072 3072 3071 3071 3071 3070 3070 3069 3068 3068 3068 3067 3067 3067 3066 3066 3066 3065 3065
3082 3082 3082 3082 3081 3081 3080 3080 3080 3080 3080 3080 3079 3079 3079 3079 3078 3078 3078 3078 3078 3078 3078 3078 3078 3078 3078 3078 3078 3078 3078 3078 3078 3078 3078 3077 3077 3077 3077 3077 3077 3077 3077 3077 3076 3076 3076 3076 3075 3075 3075 3075 3075 3075 3075 3075 3075 3074 3074 3074 3074 3073 3073 3072 3072 3072 3071 3071 3070 3070 3070 3070 3069 3069 3068 3067 3067 3066 3066 3066 3065 3065 3065 3065 3065 3064
3080 3080 3080 3080 3079 3079 3078 3078 3078 3078 3078 3078 3077 3077 3077 3077 3077 3077 3076 3076 3076 3076 3076 3076 3076 3076 3076 3077 3077 3077 3077 3077 3077 3076 3076 3076 3076 3076 3076 3076 3076 3075 3075 3075 3075 3075 3075 3074 3074 3074 3074 3074 3073 3073 3073 3073 3073 3073 3073 3072 3072 3072 3072 3071 3071 3070 3070 3070 3069 3069 3068 3068 3068 3067 3067 3066 3066 3065 3065 3065 3064 3064 3064 3063 3063 3063
3078 3078 3078 3077 3077 3076 3076 3076 3076 3076 3076 3076 3075 3075 3075 3075 3075 3075 3075 3075 3075 3075 3075 3075 3075 3075 3075 3075 3075 3075 3075 3075 3075 3075 3075 3075 3075 3075 3075 3075 3074 3074 3074 3074 3074 3073 3073 3073 3073 3072 3072 3072 3072 3072 3072 3072 3072 3071 3071 3071 3071 3070 3070 3070 3070 3069 3069 3068 3068 3067 3067 3067 3066 3066 3066 3065 3065 3064 3064 3063 3063 3063 3062 3062 3062 3062
3076 3076 3075 3075 3075 3075 3074 3074 3074 3074 3074 3074 3074 3074 3074 3074 3074 3074 3074 3074 3074 3073 3073 3073 3074 3074 3074 3074 3074 3074 3074 3074 3074 3074 3074 3074 3074 3074 3073 3073 3073 3073 3073 3073 3072 3072 3072 3071 3071 3071 3071 3071 3071 3071 3070 3070 3070 3070 3070 3070 3070 3069 3069 3069 3068 3068 3067 3067 3067 3066 3066 3065 3065 3065 3065 3064 3064 3063 3063 3062 3062 3061 3061 3061 3060 3060
3074 3074 3073 3073 3072 3072 3072 3072 3072 3072 3072 3072 3072 3072 3072 3072 3072 3072 3072 3072 3072 3072 3072 3072 3072 3072 3072 3073 3073 3073 3073 3073 3073 3073 3072 3072 3072 3072 3072 3072 3072 3071 3071 3071 3071 3071 3070 3070 3070 3070 3070 3070 3070 3070 3069 3069 3069 3069 3069 3068 3068 3068 3068 3067 3067 3066 3066 3066 3065 3065 3065 3064 3064 3064 3063 3063 3063 3062 3062 3061 3061 3060 3060 3060 3060 3059
3071 3071 3071 3070 3070 3070 3070 3070 3070 3070 3070 3070 3070 3070 3070 3070 3070 3071 3071 3071 3071 3071 3071 3071 3071 3071 3071 3071 3071 3071 3071 3071 3071 3071 3071 3071 3071 3070 3070 3070 3070 3070 3070 3070 3070 3069 3069 3069 3069 3069 3068 3068 3068 3068 3068 3068 3068 3067 3067 3067 3067 3066 3066 3066 3065 3065 3065 3065 3064 3064 3063 3063 3063 3062 3062 3062 3061 3061 3060 3060 3060 3059 3059 3059 3058 3058
3069 3069 3068 3068 3068 3068 3068 3068 3068 3068 3068 3068 3069 3069 3069 3069 3069 3069 3069 3069 3069 3070 3070 3070 3070 3070 3070 3070 3070 3070 3070 3070 3070 3070 3070 3070 3069 3069 3069 3069 3069 3069 3069 3068 3068 3068 3068 3067 3067 3067 3067 3067 3067 3067 3066 3066 3066 3066 3066 3065 3065 3065 3065 3065 3064 3064 3063 3063 3063 3062 3062 3062 3061 3061 3061 3060 3060 3060 3059 3059 3059 3058 3058 3058 3057 3057
3066 3066 3066 3066 3066 3066 3066 3066 3066 3066 3066 3067 3067 3067 3068 3068 3067 3067 3068 3068 3068 3068 3068 3069 3069 3069 3069 3069 3069 3069 3069 3069 3069 3068 3068 3068 3068 3068 3067 3067 3067 3067 3067 3067 3067 3066 3066 3066 3066 3066 3066 3065 3065 3065 3065 3065 3065 3065 3064 3064 3064 3064 3063 3063 3063 3062 3062 3062 3061 3061 3060 3060 3060 3060 3059 3059 3059 3058 3058 3058 3057 3057 3057 3056 3056 3056
3064 3064 3064 3064 3064 3064 3065 3065 3065 3065 3065 3065 3065 3066 3066 3066 3066 3066 3066 3066 3066 3066 3067 3067 3067 3067 3067 3067 3067 3067 3067 3067 3067 3067 3066 3066 3066 3066 3066 3066 3066 3065 3065 3065 3065 3065 3065 3065 3065 3064 3064 3064 3064 3064 3064 3063 3063 3063 3063 3063 3062 3062 3062 3061 3061 3061 3060 3060 3060 3060 3059 3059 3058 3058 3058 3057 3057 3057 3057 3056 3056 3056 3055 3055 3055 3055
3062 3062 3062 3062 3062 3063 3063 3063 3063 3063 3064 3064 3064 3064 3065 3065 3065 3065 3065 3065 3065 3065 3065 3065 3065 3065 3065 3065 3065 3065 3065 3065 3065 3065 3065 3065 3064 3064 3064 3064 3064 3064 3064 3064 3063 3063 3063 3063 3063 3063 3063 3063 3062 3062 3062 3062 3062 3062 3061 3061 3061 3061 3060 3060 3060 3059 3059 3059 3058 3058 3057 3057 3057 3057 3056 3056 3056 3055 3055 3055 3055 3054 3054 3054 3054 3053
3060 3060 3061 3061 3061 3061 3061 3061 3062 3062 3062 3062 3063 3063 3063 3063 3063 3063 3063 3063 3064 3064 3064 3064 3064 3064 3064 3064 3064 3064 3064 3064 3064 3064 3063 3063 3062 3062 3062 3062 3062 3062 3062 3062 3062 3061 3061 3061 3061 3061 3061 3061 3061 3061 3060 3060 3060 3060 3060 3060 3059 3059 3059 3058 3058 3058 3057 3057 3057 3056 3056 3056 3055 3055 3055 3055 3054 3054 3054 3053 3053 3053 3053 3052 3052 3052
3059 3059 3059 3059 3060 3060 3060 3060 3060 3060 3061 3061 3061 3061 3062 3062 3062 3062 3062 3062 3062 3062 3062 3062 3062 3062 3062 3062 3062 3062 3062 3062 3062 3062 3062 3061 3061 3060 3060 3060 3060 3060 3060 3060 3060 3060 3060 3060 3060 3060 3060 3059 3059 3059 3059 3059 3059 3059 3058 3058 3058 3057 3057 3057 3056 3056 3056 3055 3055 3055 3055 3054 3054 3054 3053 3053 3053 3053 3052 3052 3052 3051 3051 3051 3051 3050
3057 3057 3057 3058 3058 3058 3058 3059 3059 3059 3060 3060 3060 3060 3060 3060 3060 3061 3060 3060 3060 3060 3060 3060 3061 3061 3061 3060 3060 3060 3060 3060 3060 3060 3060 3060 3059 3059 3059 3059 3059 3059 3059 3059 3058 3058 3058 3058 3058 3058 3058 3058 3058 3057 3057 3057 3057 3057 3057 3056 3056 3056 3055 3055 3055 3055 3054 3054 3053 3053 3053 3053 3052 3052 3052 3051 3051 3051 3051 3050 3050 3050 3050 3050 3049 3049
3055 3056 3056 3056 3056 3057 3057 3057 3058 3058 3058 3058 3059 3059 3059 3059 3059 3059 3059 3059 3059 3059 3059 3059 3059 3059 3059 3059 3059 3059 3059 3059 3059 3058 3058 3058 3058 3057 3057 3057 3057 3057 3057 3057 3057 3056 3056 3056 3056 3056 3056 3056 3056 3056 3055 3055 3055 3055 3055 3055 3055 3054 3054 3054 3053 3053 3052 3052 3052 3051 3051 3051 3051 3050 3050 3050 3050 3050 3049 3049 3049 3049 3048 3048 3048 3048
3054 3055 3055 3055 3055 3055 3056 3056 3056 3057 3057 3057 3057 3057 3058 3058 3058 3058 3058 3058 3058 3058 3058 3058 3058 3058 3057 3057 3057 3057 3057 3057 3057 3056 3056 3056 3056 3055 3055 3055 3055 3055 3055 3055 3055 3055 3055 3055 3054 3054 3054 3054 3054 3054 3054 3054 3053 3053 3053 3053 3053 3052 3052 3052 3051 3051 3051 3050 3050 3050 3050 3049 3049 3049 3049 3049 3048 3048 3048 3048 3047 3047 3047 3047 3046 3046
3053 3053 3054 3054 3054 3054 3055 3055 3055 3055 3055 3055 3056 3056 3056 3056 3056 3056 3056 3056 3056 3056 3056 3056 3056 3056 3056 3056 3055 3055 3055 3055 3055 3055 3055 3055 3055 3054 3053 3053 3053 3053 3053 3053 3053 3053 3053 3053 3052 3052 3052 3052 3052 3052 3052 3052 3051 3051 3051 3051 3051 3050 3050 3050 3050 3049 3049 3049 3048 3048 3048 3048 3047 3047 3047 3047 3046 3046 3046 3046 3046 3045 3045 3045 3045 3045
3052 3052 3052 3053 3053 3053 3053 3053 3054 3054 3054 3054 3054 3055 3055 3055 3055 3055 3055 3055 3055 3055 3055 3055 3055 3055 3055 3055 3054 3053 3053 3053 3053 3053 3053 3053 3053 3052 3052 3051 3052 3052 3052 3051 3051 3051 3051 3050 3050 3050 3050 3050 3050 3050 3050 3050 3050 3050 3049 3049 3049 3049 3048 3048 3048 3047 3047 3047 3046 3046 3046 3046 3045 3045 3045 3045 3045 3045 3044 3044 3044 3044 3044 3043 3043 3043
3051 3051 3051 3051 3051 3052 3052 3052 3052 3053 3053 3053 3053 3053 3053 3053 3053 3053 3053 3053 3053 3053 3053 3053 3053 3053 3053 3053 3053 3052 3051 3051 3051 3051 3050 3050 3050 3050 3050 3050 3050 3050 3050 3050 3049 3049 3049 3049 3049 3048 3048 3048 3048 3048 3048 3048 3048 3047 3047 3047 3047 3047 3046 3046 3046 3045 3045 3045 3045 3044 3044 3044 3044 3043 3043 3043 3043 3043 3042 3042 3042 3042 3041 3041 3041 3041
3049 3050 3050 3050 3050 3050 3050 3051 3051 3051 3051 3051 3051 3051 3051 3051 3051 3051 3051 3051 3052 3052 3052 3051 3051 3051 3051 3051 3051 3050 3050 3049 3049 3049 3049 3049 3049 3049 3048 3048 3048 3048 3048 3048 3047 3047 3047 3047 3046 3046 3046 3046 3046 3046 3046 3045 3045 3045 3045 3045 3045 3045 3045 3044 3044 3044 3043 3043 3043 3042 3042 3042 3041 3041 3041 3041 3041 3040 3040 3040 3040 3040 3040 3039 3039 3039
3048 3049 3049 3049 3049 3049 3049 3050 3050 3050 3050 3050 3050 3050 3050 3050 3050 3050 3050 3050 3050 3050 3050 3050 3050 3050 3050 3050 3049 3049 3048 3048 3047 3047 3047 3047 3047 3046 3046 3046 3046 3046 3046 3046 3046 3045 3045 3045 3045 3044 3044 3044 3044 3044 3044 3044 3043 3043 3043 3043 3043 3043 3042 3042 3042 3042 3041 3041 3041 3040 3040 3040 3040 3039 3039 3039 3039 3038 3038 3038 3038 3038 3037 3037 3037 3037
3047 3047 3047 3047 3047 3048 3048 3048 3048 3048 3048 3048 3048 3048 3048 3048 3049 3049 3049 3049 3049 3048 3048 3048 3048 3048 3048 3048 3048 3047 3046 3046 3045 3045 3045 3045 3045 3045 3045 3045 3044 3044 3044 3044 3044 3044 3043 3043 3042 3042 3042 3042 3042 3042 3042 3041 3041 3041 3041 3041 3041 3040 3040 3040 3040 3040 3040 3039 3039 3039 3038 3038 3037 3037 3037 3036 3036 3036 3036 3036 3035 3035 3035 3035 3035 3035
3045 3046 3046 3046 3046 3046 3046 3046 3046 3046 3047 3047 3047 3047 3047 3047 3047 3047 3047 3047 3047 3047 3046 3046 3046 3046 3046 3046 3046 3045 3045 3044 3044 3044 3044 3043 3043 3043 3043 3043 3042 3042 3042 3042 3042 3042 3041 3041 3040 3040 3040 3040 3040 3040 3040 3040 3039 3039 3039 3039 3039 3038 3038 3038 3038 3038 3037 3037 3037 3036 3036 3036 3035 3035 3035 3035 3034 3034 3034 3033 3033 3033 3033 3033 3032 3032
3044 3044 3044 3045 3045 3045 3045 3045 3045 3045 3045 3045 3045 3045 3045 3045 3046 3046 3045 3045 3045 3045 3045 3045 3045 3044 3044 3044 3044 3044 3043 3043 3042 3042 3042 3042 3041 3041 3041 3041 3040 3040 3040 3040 3040 3040 3040 3039 3039 3038 3038 3038 3038 3038 3038 3037 3037 3037 3037 3037 3036 3036 3036 3036 3035 3035 3035 3035 3035 3035 3034 3034 3034 3033 3033 3032 3032 3032 3031 3031 3031 3031 3030 3030 3030 3030
3043 3043 3043 3043 3043 3043 3044 3044 3044 3044 3044 3044 3044 3044 3044 3044 3044 3044 3044 3044 3044 3044 3043 3043 3043 3043 3042 3042 3042 3042 3042 3041 3041 3040 3040 3040 3040 3040 3039 3039 3039 3039 3038 3038 3038 3038 3038 3037 3037 3036 3036 3036 3036 3036 3036 3035 3035 3035 3035 3035 3034 3034 3034 3034 3033 3033 3033 3033 3032 3032 3032 3032 3031 3031 3031 3030 3030 3030 3029 3029 3029 3028 3028 3028 3028 3028
3041 3041 3042 3042 3042 3042 3042 3042 3042 3042 3043 3043 3043 3043 3043 3043 3043 3043 3043 3042 3042 3042 3042 3042 3041 3041 3041 3040 3040 3040 3040 3040 3040 3039 3039 3039 3038 3038 3037 3037 3037 3037 3036 3036 3036 3036 3036 3035 3035 3035 3034 3034 3034 3034 3034 3033 3033 3033 3033 3032 3032 3032 3032 3031 3031 3031 3030 3030 3030 3030 3030 3029 3029 3029 3029 3028 3028 3028 3027 3027 3026 3026 3026 3025 3025 3025
3040 3040 3040 3040 3041 3041 3041 3041 3041 3041 3041 3041 3041 3041 3041 3041 3041 3041 3041 3041 3041 3040 3040 3040 3040 3040 3039 3039 3039 3039 3039 3039 3038 3037 3037 3037 3037 3036 3035 3035 3035 3035 3035 3034 3034 3034 3034 3033 3033 3032 3032 3032 3032 3031 3031 3031 3031 3031 3030 3030 3030 3030 3030 3030 3029 3029 3029 3028 3028 3027 3027 3027 3027 3026 3026 3026 3026 3025 3025 3025 3024 3024 3024 3023 3023 3023
3039 3039 3039 3039 3040 3040 3040 3040 3040 3040 3040 3040 3040 3040 3040 3040 3040 3040 3040 3040 3039 3039 3039 3039 3038 3038 3038 3037 3037 3037 3037 3037 3036 3036 3035 3035 3035 3035 3034 3034 3033 3033 3032 3032 3032 3032 3031 3031 3030 3030 3030 3030 3030 3029 3029 3029 3029 3028 3028 3028 3028 3028 3028 3027 3027 3027 3026 3026 3026 3025 3025 3025 3024 3024 3024 3024 3023 3023 3023 3022 3022 3022 3021 3021 3021 3020
3038 3038 3038 3038 3038 3038 3038 3038 3038 3038 3038 3038 3038 3038 3038 3038 3038 3038 3038 3038 3038 3038 3037 3037 3037 3036 3036 3035 3035 3035 3035 3035 3035 3034 3034 3034 3033 3033 3032 3032 3031 3031 3030 3030 3030 3030 3029 3029 3028 3028 3028 3027 3027 3027 3027 3026 3026 3026 3026 3025 3025 3025 3025 3025 3025 3025 3024 3024 3024 3023 3023 3022 3022 3022 3021 3021 3021 3020 3020 3020 3020 3020 3019 3019 3019 3018
3037 3037 3037 3037 3037 3037 3037 3037 3037 3037 3037 3037 3037 3037 3036 3036 3036 3036 3036 3036 3036 3036 3036 3035 3035 3035 3034 3034 3034 3033 3033 3033 3033 3032 3032 3031 3031 3031 3030 3030 3029 3029 3028 3028 3028 3028 3027 3026 3026 3025 3025 3025 3025 3024 3024 3024 3024 3024 3023 3023 3023 3023 3023 3023 3022 3022 3022 3021 3021 3021 3020 3020 3020 3019 3019 3019 3018 3018 3018 3018 3017 3017 3017 3017 3016 3016
3035 3035 3035 3035 3035 3035 3035 3035 3035 3035 3035 3035 3035 3035 3035 3035 3035 3035 3035 3034 3034 3034 3034 3034 3033 3033 3033 3032 3032 3031 3031 3031 3031 3030 3030 3029 3029 3029 3028 3028 3027 3027 3026 3026 3025 3025 3025 3025 3024 3023 3023 3022 3022 3022 3021 3021 3021 3021 3021 3020 3020 3020 3020 3020 3020 3020 3019 3019 3019 3018 3018 3018 3017 3017 3016 3016 3016 3015 3015 3015 3015 3015 3015 3015 3014 3014
3034 3034 3034 3034 3034 3034 3034 3034 3034 3034 3034 3034 3034 3034 3034 3033 3033 3033 3033 3033 3032 3032 3032 3032 3032 3031 3031 3030 3030 3029 3029 3029 3029 3028 3028 3027 3027 3026 3026 3025 3025 3025 3024 3024 3023 3023 3023 3022 3022 3021 3020 3020 3019 3019 3019 3019 3019 3018 3018 3018 3018 3018 3018 3017 3017 3017 3017 3016 3016 3016 3015 3015 3015 3015 3014 3014 3013 3013 3013 3013 3012 3012 3012 3012 3012 3012
3033 3033 3033 3033 3033 3033 3033 3033 3033 3033 3033 3032 3032 3032 3032 3032 3031 3031 3031 3031 3030 3030 3030 3030 3030 3029 3029 3028 3028 3027 3027 3027 3026 3026 3025 3025 3025 3024 3024 3023 3023 3022 3022 3021 3021 3020 3020 3020 3020 3019 3018 3018 3017 3016 3016 3016 3016 3016 3015 3015 3015 3015 3015 3015 3015 3015 3014 3014 3014 3013 3013 3013 3012 3012 3012 3011 3011 3010 3010 3010 3010 3010 3010 3010 3010 3010
3031 3031 3031 3031 3031 3031 3031 3031 3031 3031 3030 3030 3030 3030 3030 3030 3030 3030 3029 3029 3029 3028 3028 3028 3027 3027 3026 3026 3026 3025 3025 3025 3024 3024 3023 3023 3022 3022 3021 3021 3020 3020 3019 3019 3019 3018 3018 3018 3017 3017 3016 3015 3015 3014 3013 3013 3013 3013 3013 3013 3013 3013 3013 3012 3012 3012 3011 3011 3011 3010 3010 3010 3010 3010 3009 3009 3009 3008 3008 3008 3008 3007 3007 3007 3007 3007
3030 3030 3030 3029 3029 3029 3029 3029 3029 3029 3029 3028 3028 3028 3028 3028 3027 3027 3027 3027 3026 3026 3026 3025 3025 3025 3024 3024 3024 3023 3023 3022 3022 3021 3021 3020 3020 3020 3019 3019 3018 3017 3017 3016 3016 3016 3016 3015 3015 3015 3014 3013 3013 3012 3011 3010 3010 3010 3010 3010 3010 3010 3010 3010 3010 3009 3009 3009 3008 3008 3008 3007 3007 3007 3006 3006 3006 3006 3005 3005 3005 3005 3005 3005 3005 3005
3028 3028 3028 3028 3028 3027 3027 3027 3027 3027 3027 3026 3026 3026 3026 3025 3025 3025 3025 3025 3024 3024 3024 3023 3023 3023 3022 3022 3021 3021 3020 3020 3020 3019 3019 3018 3018 3017 3017 3016 3015 3015 3014 3014 3014 3013 3013 3013 3013 3012 3012 3011 3010 3010 3009 3008 3008 3007 3007 3007 3007 3007 3007 3007 3007 3007 3006 3006 3006 3005 3005 3005 3005 3004 3004 3004 3004 3003 3003 3003 3003 3002 3002 3002 3002 3002
3027 3027 3026 3026 3026 3026 3026 3025 3025 3025 3025 3025 3025 3024 3024 3024 3023 3023 3023 3022 3022 3022 3021 3021 3020 3020 3020 3019 3019 3018 3018 3017 3017 3017 3016 3016 3015 3015 3015 3014 3013 3013 3012 3011 3011 3011 3010 3010 3010 3010 3009 3009 3008 3008 3007 3006 3006 3005 3004 3004 3004 3004 3004 3005 3005 3005 3004 3004 3004 3003 3003 3002 3002 3002 3002 3001 3001 3001 3000 3000 3000 3000 3000 3000 2999 2999
3025 3025 3025 3025 3025 3024 3024 3024 3024 3023 3023 3023 3022 3022 3022 3021 3021 3021 3020 3020 3020 3019 3019 3018 3018 3017 3017 3016 3016 3015 3015 3015 3015 3014 3014 3013 3013 3012 3012 3011 3011 3010 3010 3009 3008 3008 3008 3008 3007 3007 3007 3006 3006 3005 3005 3004 3004 3003 3002 3002 3001 3001 3001 3002 3002 3002 3002 3001 3001 3001 3000 3000 3000 3000 2999 2999 2999 2998 2998 2998 2998 2997 2997 2997 2997 2997
3023 3023 3023 3023 3023 3022 3022 3022 3021 3021 3021 3020 3020 3020 3020 3019 3019 3019 3018 3017 3017 3016 3016 3016 3015 3015 3014 3014 3013 3013 3013 3012 3012 3012 3011 3011 3010 3010 3010 3009 3008 3008 3007 3007 3006 3005 3005 3005 3005 3004 3004 3004 3004 3003 3003 3002 3001 3000 3000 3000 2999 2999 2999 2999 2999 2999 2999 2999 2999 2999 2998 2998 2998 2997 2997 2997 2996 2996 2996 2995 2995 2995 2995 2994 2994 2994
3021 3021 3021 3021 3020 3020 3020 3020 3019 3019 3019 3018 3018 3018 3017 3017 3017 3016 3016 3015 3015 3014 3014 3013 3013 3012 3012 3011 3010 3010 3010 3010 3009 3009 3009 3008 3008 3007 3007 3006 3006 3005 3005 3004 3004 3003 3003 3002 3002 3002 3001 3001 3001 3001 3001 3000 2999 2998 2998 2997 2997 2997 2996 2996 2997 2997 2997 2996 2996 2996 2996 2995 2995 2995 2995 2994 2994 2994 2994 2993 2993 2993 2992 2992 2992 2991
3019 3019 3019 3019 3019 3018 3018 3018 3017 3017 3016 3016 3016 3015 3015 3015 3014 3014 3013 3013 3012 3012 3011 3011 3010 3010 3009 3009 3008 3007 3007 3007 3007 3006 3006 3005 3005 3005 3004 3004 3003 3003 3002 3002 3001 3000 3000 3000 2999 2999 2999 2999 2999 2999 2999 2998 2997 2996 2995 2995 2995 2995 2995 2994 2994 2994 2994 2994 2994 2994 2993 2993 2993 2993 2992 2992 2992 2991 2991 2991 2990 2990 2990 2990 2989 2989
3017 3017 3017 3017 3016 3016 3016 3015 3015 3015 3014 3014 3013 3013 3013 3012 3012 3011 3011 3010 3010 3010 3009 3009 3008 3008 3007 3006 3005 3005 3004 3004 3004 3004 3003 3003 3002 3002 3001 3001 3000 3000 3000 2999 2999 2998 2998 2997 2997 2996 2996 2996 2996 2996 2996 2995 2995 2994 2993 2993 2993 2993 2993 2992 2992 2992 2992 2991 2991 2991 2991 2991 2990 2990 2990 2990 2990 2989 2989 2989 2988 2988 2988 2987 2987 2986
3015 3015 3015 3015 3014 3014 3014 3013 3013 3013 3012 3012 3011 3011 3010 3010 3010 3009 3009 3008 3008 3007 3007 3006 3006 3005 3005 3004 3003 3002 3002 3001 3001 3000 3000 3000 3000 2999 2999 2998 2998 2997 2997 2996 2996 2995 2995 2995 2994 2994 2994 2993 2993 2993 2993 2993 2992 2991 2991 2990 2990 2990 2990 2990 2990 2989 2989 2989 2989 2989 2988 2988 2988 2988 2988 2987 2987 2987 2986 2986 2986 2985 2985 2985 2984 2984
3013 3012 3012 3012 3012 3012 3011 3011 3011 3010 3010 3010 3009 3009 3008 3008 3008 3007 3007 3006 3005 3005 3005 3004 3004 3003 3003 3002 3001 3000 2999 2999 2998 2998 2997 2997 2996 2996 2995 2995 2995 2994 2994 2993 2993 2993 2992 2992 2991 2991 2991 2991 2990 2990 2990 2990 2990 2989 2989 2989 2988 2988 2988 2987 2987 2987 2987 2987 2986 2986 2986 2986 2985 2985 2985 2985 2985 2984 2984 2984 2983 2983 2983 2982 2982 2981
3010 3010 3010 3010 3010 3010 3009 3009 3009 3008 3008 3007 3007 3006 3006 3006 3005 3005 3005 3004 3003 3003 3002 3002 3001 3001 3000 2999 2999 2998 2997 2996 2995 2994 2994 2993 2993 2993 2992 2992 2991 2991 2991 2990 2990 2990 2989 2989 2989 2988 2988 2988 2988 2988 2987 2987 2987 2986 2986 2986 2986 2986 2985 2985 2985 2985 2984 2984 2984 2984 2984 2983 2983 2983 2983 2982 2982 2982 2981 2981 2981 2980 2980 2980 2979 2979
3009 3008 3008 3008 3008 3007 3007 3007 3006 3006 3005 3005 3005 3004 3004 3004 3003 3003 3002 3002 3001 3000 3000 2999 2999 2998 2997 2997 2996 2995 2995 2994 2993 2992 2991 2990 2989 2989 2989 2989 2988 2988 2988 2987 2987 2987 2986 2986 2986 2985 2985 2985 2985 2985 2984 2984 2984 2984 2984 2984 2984 2984 2983 2982 2982 2982 2982 2982 2981 2981 2981 2981 2981 2980 2980 2980 2980 2980 2979 2979 2978 2978 2977 2977 2976 2976
3006 3006 3006 3006 3005 3005 3005 3004 3004 3004 3003 3003 3002 3002 3001 3001 3001 3000 3000 2999 2999 2998 2997 2997 2996 2995 2995 2994 2993 2993 2992 2991 2990 2989 2988 2987 2986 2986 2986 2985 2985 2985 2985 2984 2984 2984 2983 2983 2983 2982 2982 2982 2982 2982 2981 2981 2981 2981 2981 2981 2981 2981 2980 2980 2980 2980 2980 2979 2979 2979 2979 2978 2978 2978 2978 2978 2978 2977 2977 2976 2975 2975 2974 2974 2974 2973
3005 3004 3004 3004 3003 3003 3002 3002 3001 3001 3000 3000 3000 2999 2999 2998 2998 2998 2997 2996 2996 2995 2995 2994 2993 2993 2992 2991 2991 2990 2989 2989 2988 2987 2986 2985 2984 2983 2983 2982 2982 2982 2981 2981 2981 2980 2980 2980 2980 2980 2980 2979 2979 2979 2979 2979 2979 2979 2979 2979 2979 2979 2978 2977 2977 2977 2977 2977 2977 2976 2976 2976 2975 2975 2975 2975 2975 2975 2975 2975 2973 2972 2971 2971 2970 2970
3002 3002 3002 3002 3001 3001 3000 3000 2999 2999 2998 2997 2997 2996 2996 2995 2995 2995 2994 2993 2993 2992 2991 2991 2990 2990 2989 2989 2988 2987 2987 2986 2985 2984 2983 2982 2981 2980 2980 2980 2979 2979 2978 2978 2977 2977 2977 2977 2977 2977 2977 2976 2976 2976 2976 2976 2977 2977 2977 2976 2976 2976 2975 2975 2975 2974 2974 2974 2974 2974 2974 2973 2973 2973 2973 2973 2973 2973 2973 2973 2972 2970 2969 2968 2968 2967